COSMOS 2251 DEB, 34117

Orbit data source: Space-Track

COSMOS 2251 DEB, 34117 is space debris in LEO originally from a launch on Wed, 16 Jun 1993 UTC launched from the Plesetsk Missile And Space Complex (PKMTR). The debris from Iridium 33, an American commercial communications satellite, has been tracked extensively since its accidental collision with the defunct Russian satellite Cosmos 2251 in 2009. This event, occurring at high speed in low Earth orbit (LEO), generated thousands of pieces of space debris, significantly increasing the risk of further collisions. The Iridium 33 debris cloud has impacted space traffic management and orbital debris mitigation strategies, making it a subject of ongoing study in space situational awareness.

Loading next visibility...
Identifier
34117, 1993-036KN
Orbit
LEO
Country
Flag of CISCIS
Related business
Manufacturer
Unknown
Mission
Spacecraft
Bus & Motor
Unknown
Mass
Unknown
Launch date (UTC)
1993-06-16 (33 years ago)
Launch vehicle
Unknown
Launch site
Plesetsk Missile And Space Complex (PKMTR)
Object type
Payload
Rocket body
Debris
Shape & HBR
Unknown shape, 0.1 m
Radar Cross Section
Medium (>0.1 m² and <1 m²)

Expand to show TLE details & history
Last TLE update: 12 hours ago

TLE from 12 hours ago
0 COSMOS 2251 DEB
1 34117U 93036KN  26263.19016921  .00000877  00000-0  27620-3 0  9997
2 34117  74.0394 183.3611 0057153 193.4463 166.5174 14.40946058921765
Epoch: 2026-09-20T04:33Z
TLE epoch observation values (Epoch: 2026-09-20T04:33:50.619Z)
Latitude
Longitude
115.81228°
Altitude
797.658 km
Speed
7.434 km/s
True Right ascension
12h 13m 26s
True Declination
0° 00' 00"
Sunlit
Object was in daylight at epoch
Visualization orbit readout
Latitude
Unknown
Longitude
Unknown
Altitude
Unknown
Speed
Unknown
Apparent Right ascension
Unknown
Apparent Declination
Unknown
Sunlit
N/A
Visualization observer readout
Local Sidereal Time
09:48:11
Azimuth
Unknown
Elevation
Unknown
Doppler factor
Unknown
Orbital elements
Apogee altitude
793.749 km
Perigee altitude
712.236 km
Semi-major axis
7,131.13 km
Eccentricity
0.00572
Inclination
74.0394°
RAAN
183.3611°
Arg. of periapsis
193.4463°
True anomaly
166.66904°
Mean anomaly
166.5174°
Eccentric anomaly
166.59333°
Mean motion
3.60417 °/min
Orbital period
99.88 mins
BSTAR
0.0002762

Documentation

Showing up to 5 results
|